Flag for Germany Weather past 2 weeks in Bitburg, Rhineland-Palatinate, Germany

Now
75 °F

Sunny.


Feels Like: 78 °F
Forecast: 56 / 71 °F
Wind: 5 mph from Southeast

Location: Spangdahlem

Current Time: Sep 17, 2014 at 4:31:26 PM

Latest Report: Sep 17, 2014 at 3:58 PM


Visibility: N/A

Pressure: 29.82 "Hg

Humidity: 57%

Dew point: 59 °F

Location of BitburgLocation

Historic Weather in Bitburg — Graph

°F

Bitburg temperature yesterday

Maximum temperature yesterday: 72 °F (at 4:00 PM)
Minimum temperature yesterday: 55 °F (at 6:58 AM)
Average temperature yesterday: 62 °F

Past Weeks' High & Low Weather Summary

 TemperatureHumidityPressure
High74 °F (Sep 5, 4:58 PM)100% (Sep 5, 6:55 AM)30.22 "Hg (Sep 5, 6:55 AM)
Low45 °F (Sep 12, 6:58 AM)53% (Sep 2, 2:59 PM)29.84 "Hg (Sep 17, 2:58 PM)
Average60 °F81%30.03 "Hg
* Reported Sep 2 2:04 PM — Sep 17 2:58 PM, Bitburg, Weather by CustomWeather, © 2014

Note: Actual official high and low records may vary slightly from our data, if they occured in-between our weather recording intervals... More about our weather records

Advertising

Bitburg weather history for previous 24 hours

 ConditionsComfort  
Time TempWeatherWind HumidityBarometerVisibility
2:58 PM
Sep 17
73 °FSunny.6 mph61%29.84 "HgN/A
1:58 PM72 °FSunny.7 mph61%29.85 "HgN/A
12:58 PM72 °FSunny.7 mph65%29.86 "HgN/A
11:58 AM69 °FSunny.9 mph70%29.86 "HgN/A
10:58 AM65 °FSunny.9 mph77%29.88 "HgN/A
9:58 AM63 °FSunny.13 mph83%29.88 "HgN/A
8:58 AM59 °FSunny.8 mph92%29.88 "HgN/A
7:58 AM55 °FClear.5 mph99%29.88 "HgN/A
6:58 AM56 °FClear.6 mph100%29.88 "HgN/A
5:58 AM55 °FClear.8 mph100%29.88 "HgN/A
4:58 AM54 °FClear.3 mph100%29.90 "HgN/A
3:58 AM55 °FClear.2 mph100%29.90 "HgN/A
2:58 AM57 °FClear.1 mph95%29.89 "HgN/A
1:58 AM57 °FClear.6 mph94%29.90 "HgN/A
12:58 AM57 °FClear.5 mph88%29.91 "HgN/A
11:58 PM
Sep 16
58 °FClear.5 mph87%29.92 "HgN/A
10:58 PM60 °FClear.5 mph85%29.93 "HgN/A
9:58 PM63 °FPassing clouds.3 mph77%29.93 "HgN/A
8:58 PM62 °FClear.6 mph79%29.92 "HgN/A
7:58 PM66 °FSunny.5 mph67%29.91 "HgN/A
6:58 PM70 °FSunny.2 mph60%29.91 "HgN/A
5:58 PM72 °FSunny.5 mph53%29.91 "HgN/A
4:58 PM72 °FPassing clouds.3 mph57%29.91 "HgN/A
4:00 PM72 °FPartly sunny.3 mph57%29.97 "HgN/A
Weather by CustomWeather, © 2014

See weather overviewHow to use our weather pages